This is the latest recevied weather packets stored in our database for station/object VA2EYZ-13. If no packets are shown the sender has not sent any weather packets the latest 10 day(s).
| Time | Temp. | Humidity | Pressure | Rain* | Wind** | Luminosity | Snow |
|---|---|---|---|---|---|---|---|
| 1788443102 | 20° C | 94% | 1011.5 hPa | - | - | - | - |
| 1788441414 | 20° C | 94% | 1011.5 hPa | - | - | - | - |
| 1788440630 | 20° C | 94% | 1011.5 hPa | - | - | - | - |
| 1788440284 | 19.44° C | 94% | 1011.5 hPa | - | - | - | - |
| 1788437871 | 18.89° C | 94% | 1011 hPa | - | - | - | - |
| 1788437569 | 18.89° C | 94% | 1011 hPa | - | - | - | - |
| 1788434614 | 18.33° C | 94% | 1011 hPa | - | - | - | - |
| 1788433688 | 18.33° C | 94% | 1011 hPa | - | - | - | - |
| 1788432985 | 18.33° C | 94% | 1011.4 hPa | - | - | - | - |
| 1788430311 | 18.33° C | 94% | 1011 hPa | - | - | - | - |
| 1788426187 | 18.33° C | 94% | 1010 hPa | - | - | - | - |
| 1788425283 | 18.33° C | 94% | 1011 hPa | - | - | - | - |
| 1788423628 | 17.78° C | 94% | 1010.9 hPa | - | - | - | - |
| 1788423522 | 18.33° C | 94% | 1010.9 hPa | - | - | - | - |
| 1788422588 | 17.78° C | 94% | 1010.9 hPa | - | - | - | - |
| 1788420153 | 17.78° C | 94% | 1010.9 hPa | - | - | - | - |
| 1788419674 | 17.78° C | 94% | 1010.9 hPa | - | - | - | - |
| 1788417787 | 17.78° C | 94% | 1011 hPa | - | - | - | - |
| 1788417186 | 17.78° C | 93% | 1011 hPa | - | - | - | - |
| 1788412612 | 17.78° C | 94% | 1011.2 hPa | - | - | - | - |
| 1788411541 | 17.78° C | 94% | 1011 hPa | - | - | - | - |
| 1788410517 | 18.33° C | 94% | 1011 hPa | - | - | - | - |
| 1788410146 | 18.33° C | 94% | 1011 hPa | - | - | - | - |
| 1788404442 | 18.33° C | 94% | 1012 hPa | - | - | - | - |
| 1788401658 | 18.33° C | 92% | 1012 hPa | - | - | - | - |
* Rain since midnight (hover to see other rain measurements)
** Current wind speed in m/s (hover to see current wind gust speed)